Location: Mount Tamalpais State Park
(37.9108°N, 122.6128°W)
Time: 22:54:49
(UTC-07:00)

Daily predictions for brighter satellites

Satellite Brightness Start Highest point End
(mag) Time Altitude Azimuth Time Altitude Azimuth Time Altitude Azimuth
Atlas Centaur 2 3.5 20:38:34 10° SW 20:44:51 35° SSE 20:52:07 10° E
Cosmos 2285 Rocket 4.3 20:41:14 10° N 20:47:26 54° ENE 20:53:36 10° SE
PSLV R/B 3.5 20:45:59 10° SW 20:49:25 57° SSE 20:52:56 10° ENE
Cosmos 2098 Rocket 3.4 20:46:01 10° NNW 20:49:30 61° W 20:53:50 10° S
Envisat 4.4 20:46:58 10° ESE 20:50:53 23° ENE 20:54:47 10° NNE
Cosmos 1743 2.7 20:49:29 10° N 20:53:20 78° E 20:57:09 10° S
Cosmos 1110 Rocket 4.0 20:48:51 10° NNW 20:54:11 82° ENE 20:59:26 10° SSE
deb Chang Zheng 4 4.1 20:50:31 10° NNE 20:54:39 40° E 20:58:44 10° S
Cosmos 1464 Rocket 4.2 20:50:15 10° N 20:56:13 51° E 21:02:11 10° SSE
Cosmos 1939 Rocket 4.2 20:53:21 10° SE 20:56:49 26° ENE 21:00:16 10° NNE
Cosmos 1606 Rocket 3.6 20:53:40 10° N 20:58:08 86° W 21:02:31 10° S
ATLAS CENTAUR Rocket 4.1 20:56:08 10° SW 21:01:41 42° SSE 21:27:25 10° E
Lacrosse 5 rocket 3.9 20:58:48 10° W 21:02:00 25° NW 21:05:21 10° NNE
CZ-4 DEB 3.0 20:59:00 10° S 21:02:12 71° WSW 21:05:26 10° NNW
H-2A R/B 2.5 21:00:17 10° SE 21:04:19 45° ENE 21:08:27 10° N
SPOT 5 3.9 21:04:21 10° ESE 21:07:55 24° ENE 21:11:26 10° NNE
ALOS 2.6 21:03:58 10° S 21:08:36 67° W 21:13:16 10° NNW
Meteor 1-23 Rocket 4.3 21:05:49 10° S 21:11:28 88° E 21:17:13 10° N
COSMOS 2455 3.4 21:06:24 10° S 21:11:49 37° ESE 21:17:16 10° NE
Cosmos 1626 Rocket 4.1 21:08:14 10° SSE 21:12:24 40° E 21:16:33 10° NNE
Cosmos 1603 3.8 21:08:28 10° S 21:13:53 51° ESE 21:19:18 10° NNE
Cosmos 2034 Rocket 4.2 21:09:19 10° N 21:15:34 55° E 21:21:44 10° SSE
Meteor 2-9 Rocket 4.3 21:14:31 10° N 21:20:16 77° E 21:26:04 10° SSE
Cosmos 2228 3.0 21:16:37 10° N 21:21:01 70° E 21:25:24 10° SSE
BREEZE-M DEB (TANK) 2.6 21:20:52 10° SW 21:26:53 87° SSE 21:29:16 10° NE
Meteor 2-4 Rocket 4.3 21:22:22 10° SSW 21:28:11 66° W 21:34:06 10° N
H-2A R/B 4.2 21:24:44 10° SSW 21:28:24 37° W 21:32:06 10° NNW
PSLV R/B 4.1 21:27:44 19° SE 21:29:26 32° ENE 21:32:15 10° N
Okean 2 4.3 21:27:51 10° SSW 21:31:55 52° W 21:36:02 10° N
Aureole 2 Rocket 3.7 21:29:52 10° SW 21:33:42 48° WNW 21:37:12 10° N
Cosmos 1943 3.9 21:32:26 10° SSE 21:37:23 32° ESE 21:42:23 10° NE
CZ-2C R/B 2.5 21:36:33 10° SSW 21:38:32 25° W 21:40:32 10° NW
Lacrosse 4 Rocket 3.0 21:39:17 16° E 21:39:17 16° E 21:41:27 10° ENE
USA 186 4.4 21:37:55 10° SW 21:39:40 15° W 21:41:22 10° WNW
H-2A R/B 4.1 21:38:57 10° E 21:40:38 12° ENE 21:42:20 10° NE
GEOS 3 Rocket 4.4 21:36:40 11° SSE 21:41:36 48° WSW 21:46:39 10° NW
Cosmos 1943 Rocket 4.4 21:41:18 10° NNE 21:42:47 11° NE 21:44:17 10° ENE
SeaSat 1 2.7 21:44:08 20° SE 21:47:24 58° ENE 21:52:15 10° NNW
Nimbus 7 Rocket 4.4 21:41:51 10° NNE 21:47:50 87° WNW 21:53:43 10° SSW
SPOT 1/Viking Rocket 4.3 21:45:59 20° SE 21:48:54 38° ENE 21:53:37 10° N
UNK 4.2 21:46:38 10° NNE 21:52:04 66° ESE 21:57:46 10° S
CZ-4B R/B 3.6 21:52:57 10° NNE 21:58:01 59° ESE 22:02:04 16° S
Cosmos 1461 3.3 21:56:27 10° NW 22:00:37 56° WSW 22:02:45 25° S
Cosmos 1238 4.1 22:01:58 27° S 22:03:33 87° W 22:06:34 10° N
Abrixas rocket 3.7 22:08:42 10° WNW 22:11:39 27° SW 22:12:14 25° SSW
ARGOS 3.4 22:14:46 31° SE 22:17:11 56° ENE 22:22:30 10° N
ISS -1.9 22:18:21 10° WSW 22:21:27 40° NW 22:24:35 10° NE
Cosmos 1825 Rocket 3.5 22:20:09 32° S 22:22:10 81° E 22:26:38 10° N
CZ-4C R/B 4.1 22:22:05 37° ESE 22:22:52 41° ENE 22:26:44 10° N
Cosmos 2369 Rocket 2.4 22:17:29 10° NNW 22:23:05 57° ENE 22:25:15 35° SE
ATLAS 3B R/B 2.9 22:17:23 10° SSW 22:25:02 71° ESE 22:32:34 10° NE
NAVSTAR 52 R/B(PAM-D 4.3 22:20:41 10° W 22:25:09 71° SSW 22:25:21 68° SSE
PSLV R/B 4.0 22:23:38 10° W 22:27:07 54° N 22:28:46 27° ENE
Envisat 4.1 22:25:56 16° SSW 22:29:37 39° W 22:34:22 10° NNW
NOAA 11 4.1 22:31:39 39° SSE 22:33:41 73° ENE 22:39:06 10° N
Cosmos 407 Rocket 3.4 22:31:34 34° S 22:33:51 69° ESE 22:39:03 10° NNE
Atlas Centaur 2 3.2 22:26:37 10° WSW 22:34:02 50° S 22:37:59 30° ESE
SL-08 RB Rocket 3.6 22:37:33 53° SE 22:38:34 76° ENE 22:43:07 10° N
USA 234 3.2 22:35:50 34° SE 22:39:02 82° NE 22:45:37 10° NW
CZ-4 R/B 4.0 22:35:01 10° N 22:40:01 79° WNW 22:42:44 28° SSW
Cosmos 1953 3.9 22:39:39 10° NNE 22:42:23 23° ENE 22:42:23 23° ENE
Milstar 3 Cent rocket 4.4 22:44:14 10° SW 22:44:59 10° SW 22:45:13 10° SSW
SPOT 5 4.4 22:43:27 17° SW 22:45:53 26° W 22:49:33 10° NW
Landsat 7 3.8 22:45:23 54° SE 22:46:13 65° ENE 22:50:56 10° N
YAOGAN 6 3.7 22:48:44 34° SW 22:49:26 37° W 22:52:56 10° NNW
Cosmos 2263 4.2 22:43:52 10° NNW 22:49:28 68° ENE 22:50:53 49° SE
COSMOS 2406 4.0 22:51:28 33° E 22:51:28 33° E 22:56:02 10° NE
Cosmos 1954 Rocket 4.0 22:52:49 55° SE 22:53:24 59° ESE 22:58:37 10° NNE
Meteor 1-22 Rocket 4.2 22:49:34 10° NNW 22:55:11 80° W 22:57:03 45° S
COSMOS 2455 4.4 22:52:19 10° WSW 22:57:43 34° NW 23:03:10 10° N
Cosmos 1346 Rocket 3.6 22:59:54 39° WSW 23:00:40 45° WNW 23:04:27 10° N
Cosmos 1634 Rocket 4.4 22:55:11 10° NNW 23:01:12 57° W 23:04:03 31° SSW
Terra 1.8 23:01:40 63° ESE 23:02:01 66° ENE 23:06:45 10° N
USA 238 DEB 3.8 23:01:03 45° SSE 23:02:41 53° ESE 23:09:31 10° NE
USA 238 3.9 23:01:14 45° SSE 23:02:47 53° ESE 23:09:37 10° NE
IGS 5A 3.7 23:04:04 58° NE 23:04:04 58° NE 23:07:53 10° N
CZ-4C R/B 4.4 23:12:00 10° ENE 23:12:00 10° ENE 23:12:04 10° ENE
SAR-Lupe-2 4.4 23:14:03 49° NNW 23:14:03 49° NNW 23:16:48 10° NNW
Cosmos 1842 3.7 23:14:45 61° NNW 23:14:45 61° NNW 23:18:07 10° N
Lacrosse 4 Rocket 2.8 23:15:32 24° WSW 23:17:16 35° WNW 23:21:03 10° N
H-2A R/B 1.8 23:18:56 73° SSW 23:19:19 78° WSW 23:24:22 10° NNW
Cosmos 2279 Rocket 4.2 23:18:16 10° NNW 23:24:27 65° W 23:26:09 47° SSW
Cosmos-2242 3.2 23:21:25 10° N 23:25:25 70° NW 23:25:25 70° NW
Cosmos 1943 Rocket 2.0 23:21:54 10° NNW 23:27:28 76° ENE 23:27:52 72° ESE
Cosmos 1758 4.0 23:24:42 10° N 23:27:57 55° N 23:27:57 55° N
Cosmos 1850 Rocket 4.2 23:30:32 57° ENE 23:30:32 57° ENE 23:35:04 10° NNE
Cosmos 1570 Rocket 4.3 23:25:03 10° N 23:30:20 55° ENE 23:30:26 55° ENE
Cosmos 1932 4.5 23:31:51 39° SW 23:34:17 75° WNW 23:40:32 10° NNE
Cosmos 1607 3.8 23:40:55 72° SE 23:41:05 72° ESE 23:47:18 10° NE
Cosmos 1656 Rocket 4.2 23:36:47 10° N 23:42:18 48° ENE 23:42:37 47° ENE
Meteor 2-5 Rocket 4.0 23:48:01 56° E 23:48:01 56° E 23:53:22 10° NNE
Cosmos 1140 Rocket 3.6 23:48:52 65° W 23:49:06 66° WNW 23:54:21 10° NNE
ISS 0.4 23:57:49 10° NNW 23:58:37 11° NNW 23:59:24 10° N
